CW5039 Weather Reports


Display with metric or nautical units.
time (UTC)temp
F
wind
direction
speed
MPH
gust
MPH
rain 1hr
in
rain 24hr
in
rain mn
in
humidity
%
barometer
mb
20260507101405 58 302 0.0 0.0 0.00 0.00 0.00 89 1021.2
20260507095905 59 301 2.0 5.0 0.00 0.00 0.00 87 1021.2
20260507094905 60 78 5.0 6.0 0.00 0.00 0.00 87 1020.9
20260507093905 60 85 5.0 7.0 0.00 0.00 0.00 86 1020.8
20260507093405 60 85 6.0 9.0 0.00 0.00 0.00 86 1020.8
20260507092405 60 76 6.0 10.0 0.00 0.00 0.00 86 1020.7
20260507090904 60 69 9.0 12.0 0.00 0.00 0.00 87 1020.4
20260507090406 60 73 10.0 12.0 0.00 0.00 0.00 87 1020.4
20260507085905 60 71 9.0 13.0 0.00 0.00 0.00 87 1020.4
20260507085405 60 68 10.0 14.0 0.00 0.00 0.00 87 1020.5
20260507084906 60 64 10.0 15.0 0.00 0.00 0.00 87 1020.6
20260507083905 60 63 10.0 13.0 0.00 0.00 0.00 87 1020.6
20260507083406 60 64 9.0 13.0 0.00 0.00 0.00 87 1020.7
20260507082905 60 61 8.0 12.0 0.00 0.00 0.00 87 1020.8
20260507081906 61 64 9.0 12.0 0.00 0.00 0.00 87 1020.8
20260507081406 61 59 11.0 13.0 0.00 0.00 0.00 87 1020.8
20260507080905 61 53 10.0 14.0 0.00 0.00 0.00 87 1020.9
20260507080405 61 51 9.0 12.0 0.00 0.00 0.00 88 1021.1
20260507075905 61 43 9.0 12.0 0.00 0.00 0.00 88 1021.2
20260507075405 60 44 9.0 12.0 0.00 0.00 0.00 88 1021.2
20260507074406 60 43 9.0 12.0 0.00 0.00 0.00 89 1021.3
20260507073406 59 34 7.0 10.0 0.00 0.00 0.00 90 1021.3
20260507072906 59 37 8.0 10.0 0.00 0.00 0.00 89 1021.2
20260507072405 59 35 8.0 10.0 0.00 0.00 0.00 89 1021.2
20260507071907 59 44 7.0 10.0 0.00 0.00 0.00 89 1021.2
20260507071406 59 45 7.0 10.0 0.00 0.00 0.00 89 1021.2
20260507070406 58 47 7.0 12.0 0.00 0.00 0.00 89 1021.1
20260507065905 58 38 6.0 9.0 0.00 0.00 0.00 89 1021.2
20260507065405 58 31 5.0 6.0 0.00 0.00 0.00 88 1021.1
20260507062904 59 45 5.0 6.0 0.00 0.00 0.00 86 1021.1
20260507061905 60 27 5.0 6.0 0.00 0.00 0.00 86 1021.1
20260507061406 61 28 6.0 7.0 0.00 0.00 0.00 86 1020.9
20260507055905 61 30 6.0 7.0 0.00 0.00 0.00 83 1020.9
20260507054905 62 36 7.0 9.0 0.00 0.00 0.00 82 1020.8
20260507053905 64 32 7.0 10.0 0.00 0.00 0.00 80 1020.8
20260507051405 66 355 8.0 12.0 0.00 0.00 0.00 77 1021.2
20260507045906 66 350 9.0 12.0 0.00 0.00 0.00 75 1021.3
20260507045405 67 3 7.0 12.0 0.00 0.00 0.00 74 1021.2
20260507043405 68 8 9.0 15.0 0.00 0.00 0.00 72 1021.3
20260507041905 70 8 7.0 12.0 0.00 0.00 0.00 69 1021.4
20260507040405 71 0 9.0 12.0 0.00 0.00 0.00 72 1021.3
20260507035905 70 13 8.0 12.0 0.00 0.00 0.00 73 1021.3
20260507035405 69 10 6.0 12.0 0.00 0.00 0.00 72 1021.3
20260507034406 69 8 8.0 13.0 0.00 0.00 0.00 72 1021.4
20260507033404 70 10 11.0 16.0 0.00 0.00 0.00 72 1021.5
20260507031904 71 357 10.0 14.0 0.00 0.00 0.00 70 1021.7
20260507031406 70 14 12.0 16.0 0.00 0.00 0.00 71 1021.8
20260507030905 69 7 13.0 17.0 0.00 0.00 0.00 71 1021.8
20260507030405 70 352 13.0 18.0 0.00 0.00 0.00 71 1021.8
20260507025905 70 354 12.0 17.0 0.00 0.00 0.00 71 1021.8
20260507025405 70 18 9.0 14.0 0.00 0.00 0.00 71 1021.9
20260507022905 70 3 11.0 20.0 0.00 0.00 0.00 69 1022.1
20260507021905 70 350 14.0 20.0 0.00 0.00 0.00 70 1022.1
20260507021405 70 354 10.0 16.0 0.00 0.00 0.00 70 1022.1
20260507020904 70 353 13.0 18.0 0.00 0.00 0.00 70 1022.1
20260507015904 71 359 15.0 18.0 0.00 0.00 0.00 68 1022.2
20260507014405 72 0 15.0 20.0 0.00 0.00 0.00 67 1022.3
20260507013906 71 9 12.0 17.0 0.00 0.00 0.00 68 1022.4
20260507013405 72 354 12.0 20.0 0.00 0.00 0.00 67 1022.4
20260507012906 72 355 13.0 18.0 0.00 0.00 0.00 66 1022.5
20260507012406 72 352 13.0 16.0 0.00 0.00 0.00 67 1022.6
20260507011905 71 347 14.0 17.0 0.00 0.00 0.00 71 1022.6
20260507010905 71 353 10.0 17.0 0.00 0.00 0.00 69 1022.7
20260507010405 72 356 12.0 16.0 0.00 0.00 0.00 70 1022.7
20260507005905 72 15 11.0 17.0 0.00 0.00 0.00 72 1022.8
20260507005404 71 10 9.0 17.0 0.00 0.00 0.00 72 1022.9
20260507003904 69 17 9.0 15.0 0.00 0.00 0.00 77 1022.8
20260507003405 70 26 12.0 16.0 0.00 0.00 0.00 76 1022.9
20260507002405 70 358 11.0 14.0 0.00 0.00 0.00 74 1022.9
20260507001905 71 14 11.0 15.0 0.00 0.00 0.00 74 1022.9
20260507001405 70 17 12.0 16.0 0.00 0.00 0.00 74 1023.0
20260506235905 69 7 8.0 12.0 0.00 0.00 0.00 79 1023.3
20260506234905 68 19 6.0 12.0 0.00 0.00 0.00 81 1023.5
20260506233905 69 40 9.0 15.0 0.00 0.00 0.00 81 1023.5
20260506233405 68 42 13.0 16.0 0.00 0.00 0.00 81 1023.5
20260506230904 69 33 14.0 18.0 0.00 0.00 0.00 79 1023.6
20260506225904 69 40 14.0 18.0 0.00 0.00 0.00 79 1023.6
20260506224404 69 38 12.0 16.0 0.00 0.00 0.00 78 1023.7
20260506223904 69 45 12.0 16.0 0.00 0.00 0.00 78 1023.8
20260506222904 69 36 9.0 12.0 0.00 0.00 0.00 77 1023.9
20260506220904 68 40 6.0 7.0 0.00 0.00 0.00 84 1024.0
20260506220405 67 46 5.0 6.0 0.00 0.00 0.00 85 1024.2
20260506215404 66 49 2.0 3.0 0.00 0.00 0.00 87 1024.3
20260506214405 66 45 2.0 3.0 0.00 0.00 0.00 89 1024.5
20260506213905 65 13 1.0 2.0 0.00 0.00 0.00 90 1024.5
20260506213405 65 12 1.0 3.0 0.00 0.00 0.00 91 1024.5
20260506212404 64 279 0.0 0.0 0.00 0.00 0.00 94 1024.6
20260506211904 63 278 0.0 0.0 0.00 0.00 0.00 94 1024.6
20260506211404 62 277 0.0 0.0 0.00 0.00 0.00 94 1024.8
20260506210904 62 277 0.0 0.0 0.00 0.00 0.00 95 1024.8
20260506205906 61 271 0.0 2.0 0.00 0.00 0.00 95 1025.0
20260506204905 61 160 0.0 1.0 0.00 0.00 0.00 95 1024.9
20260506204405 60 142 0.0 1.0 0.00 0.00 0.00 95 1024.9
20260506202905 58 203 0.0 0.0 0.00 0.00 0.00 95 1024.9
20260506202404 58 205 0.0 0.0 0.00 0.00 0.00 95 1024.9
20260506201905 58 205 0.0 0.0 0.00 0.00 0.00 95 1024.9
20260506193405 57 200 0.0 1.0 0.00 0.00 0.00 95 1025.0
20260506192905 57 198 0.0 1.0 0.00 0.00 0.00 95 1025.0
20260506192405 57 198 0.0 1.0 0.00 0.00 0.00 95 1024.9
20260506191906 57 191 0.0 1.0 0.00 0.00 0.00 95 1024.9
20260506190905 57 199 0.0 1.0 0.00 0.00 0.00 95 1024.7
20260506185905 57 208 0.0 0.0 0.00 0.00 0.00 95 1024.7
20260506185405 57 208 0.0 0.0 0.00 0.00 0.00 95 1024.7
20260506184906 57 208 0.0 0.0 0.00 0.00 0.00 95 1024.7
20260506183406 57 208 0.0 0.0 0.00 0.00 0.00 95 1024.7
20260506182906 57 208 0.0 0.0 0.00 0.00 0.00 95 1024.7
20260506182406 57 208 0.0 0.0 0.00 0.00 0.00 95 1024.7
20260506180905 57 208 1.0 1.0 0.00 0.00 0.00 95 1024.7
20260506180405 57 203 0.0 0.0 0.00 0.00 0.00 95 1024.6
20260506175906 57 203 0.0 0.0 0.00 0.00 0.00 95 1024.7
20260506174905 57 202 0.0 1.0 0.00 0.00 0.00 95 1024.7
20260506174405 57 202 0.0 1.0 0.00 0.00 0.00 95 1024.8
20260506173905 57 202 0.0 1.0 0.00 0.00 0.00 95 1024.7
20260506173405 57 202 0.0 1.0 0.00 0.00 0.00 95 1024.7
20260506172905 57 202 1.0 2.0 0.00 0.00 0.00 95 1024.8
20260506171906 57 202 1.0 2.0 0.00 0.00 0.00 95 1024.9
20260506171406 56 211 2.0 2.0 0.00 0.00 0.00 95 1024.9
20260506170906 56 219 0.0 1.0 0.00 0.00 0.00 95 1025.0
20260506164905 56 219 1.0 1.0 0.00 0.00 0.00 95 1025.1
20260506163906 57 219 1.0 2.0 0.00 0.00 0.00 95 1025.1
20260506163405 57 220 1.0 2.0 0.00 0.00 0.00 95 1025.2
20260506162406 57 257 0.0 1.0 0.00 0.00 0.00 94 1025.1
20260506161405 56 257 0.0 1.0 0.00 0.00 0.00 95 1025.3
20260506160906 56 257 0.0 1.0 0.00 0.00 0.00 95 1025.3
20260506160405 56 257 1.0 2.0 0.00 0.00 0.00 95 1025.3
20260506155406 56 261 1.0 2.0 0.00 0.00 0.00 94 1025.3
20260506154906 56 261 2.0 3.0 0.00 0.00 0.00 94 1025.2
20260506154406 55 266 3.0 5.0 0.00 0.00 0.00 94 1025.2
20260506153906 56 101 0.0 0.0 0.00 0.00 0.00 94 1025.1
20260506153406 55 101 0.0 0.0 0.00 0.00 0.00 94 1025.1
20260506152406 56 101 0.0 1.0 0.00 0.00 0.00 94 1025.1
20260506151905 56 101 2.0 3.0 0.00 0.00 0.00 94 1025.1
20260506145905 57 115 3.0 3.0 0.00 0.00 0.00 94 1025.3
20260506144406 57 123 1.0 1.0 0.00 0.00 0.00 94 1025.5
20260506143406 57 123 2.0 3.0 0.00 0.00 0.00 94 1025.8
20260506142906 57 110 3.0 3.0 0.00 0.00 0.00 94 1025.9
20260506142406 57 110 3.0 3.0 0.00 0.00 0.00 94 1026.0
20260506141406 57 106 2.0 3.0 0.00 0.00 0.00 94 1026.0
20260506140906 57 183 1.0 2.0 0.00 0.00 0.00 94 1026.1
20260506140406 57 255 0.0 2.0 0.00 0.00 0.00 94 1026.4
20260506135906 57 255 1.0 2.0 0.00 0.00 0.00 94 1026.4
20260506135406 57 255 1.0 3.0 0.00 0.00 0.00 94 1026.5
20260506134405 57 269 3.0 3.0 0.00 0.00 0.00 94 1026.6
20260506133906 57 298 3.0 8.0 0.00 0.00 0.00 94 1026.6
20260506133405 57 298 5.0 9.0 0.00 0.00 0.00 94 1026.5
20260506132905 57 283 5.0 7.0 0.00 0.00 0.00 94 1026.5
20260506131405 58 116 6.0 7.0 0.00 0.00 0.00 94 1026.2
20260506130905 58 117 6.0 6.0 0.00 0.00 0.00 94 1026.2
20260506124405 57 255 0.0 1.0 0.00 0.00 0.00 94 1026.5
20260506123906 57 255 1.0 2.0 0.00 0.00 0.00 94 1026.5
20260506123406 57 255 2.0 3.0 0.00 0.00 0.00 94 1026.6
20260506122905 58 103 0.0 2.0 0.00 0.00 0.00 94 1026.6
20260506121906 57 75 0.0 0.0 0.00 0.00 0.00 94 1026.7
20260506120405 56 75 0.0 0.0 0.00 0.00 0.00 94 1026.7
20260506114906 55 75 0.0 0.0 0.00 0.00 0.00 93 1026.7
20260506114406 56 75 0.0 0.0 0.00 0.00 0.00 93 1026.7
20260506113906 56 75 0.0 1.0 0.00 0.00 0.00 93 1026.7
20260506112906 56 75 1.0 2.0 0.00 0.00 0.00 93 1026.8
20260506110906 53 74 0.0 0.0 0.00 0.00 0.00 91 1026.9
20260506105406 57 74 1.0 2.0 0.00 0.00 0.00 92 1026.8
20260506104406 57 74 1.0 2.0 0.00 0.00 0.00 92 1026.9
20260506101905 57 74 2.0 3.0 0.00 0.00 0.00 90 1026.9